Regional Weather Roundup
Issued by NWS State College, PA

Home | Current Version | Previous Version | Text Only | Print | Product List | Glossary Off
Versions: 1 2 3 4 5 6 7 8 9 10 11 12 13 14 15 16 17 18 19 20 21 22 23 24 25 26 27 28 29 30 31 32 33 34 35 36 37 38 39 40 41 42 43 44 45 46 47 48 49 50

000
ASUS41 KCTP 030803
RWRCTP

REGIONAL WEATHER ROUNDUP
NATIONAL WEATHER SERVICE STATE COLLEGE PA
400 AM EDT WED SEP 03 2014

Note: "fair" indicates few or no clouds below 12,000 feet with no
significant weather and/or obstructions to visibility.

* = STATION THAT DOES NOT REPORT PRECIPITATION /E.G. RAIN...SNOW...ETC/
    THUNDER OR FOG.

PAZ002>004-007>009-013>016-020>023-029>032-030900-
WESTERN PENNSYLVANIA

CITY           SKY/WX    TMP DP  RH WIND       PRES   REMARKS
ERIE           CLEAR     64  61  90 S5        29.99R
MEADVILLE      FOG       65  63  93 W3        30.02R VSB 1/2
FRANKLIN*      CLOUDY    61  57  88 SW3       30.04R VSB 1
NEW CASTLE     PTSUNNY   61  61 100 CALM      30.03S FOG
BEAVER COUNTY  NOT AVBL
BUTLER*        CLOUDY    59  57  94 CALM      30.04R VSB<1/4
PITTSBURGH INT MOCLDY    65  63  93 CALM      30.02R
PITTSBURGH     MOCLDY    66  63  90 W3        30.02R
INDIANA*       FOG       64  64 100 CALM      30.07R VSB 0
LATROBE        CLEAR     64  64 100 CALM      30.03R
WASHINGTON CO* MOCLDY    61  61 100 CALM      30.03R
$$

PAZ004>006-010>012-017>019-024>028-033>037-041-042-045-046-049>053-030900-
CENTRAL PENNSYLVANIA

CITY           SKY/WX    TMP DP  RH WIND       PRES   REMARKS
BRADFORD       MOCLDY    62  60  93 CALM      30.03R
DUBOIS         FOG       61  61 100 W3        30.03R VSB 1/4
CLEARFIELD     CLOUDY    65  62  90 VRB6      30.02R
JOHNSTOWN      MOCLDY    64  63  96 W6        30.05R FOG
ALTOONA        MOCLDY    65  64  97 W3        30.01S
STATE COLLEGE  PTCLDY    65  63  91 W5        30.00R
WILLIAMSPORT   PTCLDY    65  62  90 W3        29.95R
SELINSGROVE    CLEAR     62  61  96 CALM      29.96R FOG
FT INDIANTOWN  PTCLDY    72  67  84 VRB5      29.95R
CAPITAL CITY   MOCLDY    68  66  93 W6        29.94R
HARRISBURG     MOCLDY    71  67  87 CALM      29.94R
YORK           MOCLDY    66  65  96 CALM      29.95R
$$

PAZ038>040-043-044-047-048-054-055-060>062-067>071-030900-
EASTERN PENNSYLVANIA

CITY           SKY/WX    TMP DP  RH WIND       PRES   REMARKS
SCRANTON       CLOUDY    68  64  87 CALM      29.95R
MOUNT POCONO   PTCLDY    63  60  90 NW12G20   29.95S
ALLENTOWN      PTCLDY    68  62  81 W5        29.92R
QUAKERTOWN*    MOSUNNY   68  64  88 CALM      29.93S
READING        PTCLDY    69  66  90 CALM      29.92S
LANCASTER      MOCLDY    67  66  97 W3        29.94R
COATESVILLE    PTSUNNY   70  66  88 NW6       29.95R
POTTSTOWN      PTCLDY    70  65  84 CALM      29.94R
BLUE BELL      PTCLDY    72  68  88 CALM      29.91R
DOYLESTOWN     PTCLDY    70  64  81 NW5       29.91R
WILLOW GROVE   NOT AVBL
NORTH PHILA    MOCLDY    75  63  66 NW7       29.92R
PHILADELPHIA   CLOUDY    75  68  78 W6        29.92R
$$


USA.gov is the U.S. government's official web portal to all federal, state and local government web resources and services.